When you browse on this site, cookies collect data to enhance your experience and personalize the content and advertising you see.
Visit our Privacy Policy to learn more. By continuing to use the site, you agree to this use of cookies and data.
  • In Hungary
  • List of Countries
  • For 7 days
  • Water Temperature
  • Weather Map
  • News
  • Weather Widgets
  • user-avatar
    Login

    Hourly Weather Leribe

    Today, 16 December, Monday

    Time Temperature Precipitation Wind Pressure Humidity
    00:00 +12°C° 0 mm 1 mps 629 mmHg 34%
    01:00 +12°C° 0 mm 1 mps 628 mmHg 35%
    02:00 +10°C° 0 mm 0 mps 628 mmHg 36%
    03:00 +9°C° 0 mm 0 mps 628 mmHg 37%
    04:00 +9°C° 0 mm 0 mps 628 mmHg 39%
    05:00 +9°C° 0 mm 1 mps 628 mmHg 41%
    06:00 +12°C° 0 mm 1 mps 629 mmHg 37%
    07:00 +14°C° 0 mm 1 mps 630 mmHg 33%
    08:00 +18°C° 0 mm 1 mps 632 mmHg 30%
    09:00 +21°C° 0 mm 1 mps 632 mmHg 24%
    10:00 +23°C° 0 mm 1 mps 632 mmHg 19%
    11:00 +25°C° 0 mm 1 mps 633 mmHg 14%
    12:00 +27°C° 0 mm 1 mps 633 mmHg 12%
    13:00 +28°C° 0 mm 2 mps 632 mmHg 11%
    14:00 +29°C° 0 mm 2 mps 632 mmHg 9%
    15:00 +29°C° 0 mm 3 mps 632 mmHg 10%
    16:00 +29°C° 0 mm 4 mps 632 mmHg 10%
    17:00 +29°C° 0 mm 5 mps 632 mmHg 11%
    18:00 +26°C° 0 mm 4 mps 631 mmHg 14%
    19:00 +23°C° 0 mm 2 mps 630 mmHg 18%
    20:00 +20°C° 0 mm 1 mps 629 mmHg 22%
    21:00 +19°C° 0 mm 1 mps 629 mmHg 24%
    22:00 +18°C° 0 mm 1 mps 629 mmHg 26%
    23:00 +15°C° 0 mm 0 mps 629 mmHg 28%

    Tomorrow, 17 December, Tuesday

    Time Temperature Precipitation Wind Pressure Humidity
    00:00 +15°C° 0 mm 1 mps 629 mmHg 31%
    01:00 +15°C° 0 mm 1 mps 628 mmHg 34%
    02:00 +14°C° 0 mm 2 mps 628 mmHg 37%
    03:00 +14°C° 0 mm 2 mps 628 mmHg 48%
    04:00 +13°C° 0 mm 2 mps 628 mmHg 60%
    05:00 +12°C° 0 mm 2 mps 628 mmHg 71%
    06:00 +14°C° 0 mm 2 mps 628 mmHg 69%
    07:00 +16°C° 0 mm 2 mps 629 mmHg 66%
    08:00 +19°C° 0 mm 3 mps 630 mmHg 64%
    09:00 +21°C° 0 mm 3 mps 630 mmHg 57%
    10:00 +24°C° 0 mm 3 mps 631 mmHg 51%
    11:00 +26°C° 0 mm 4 mps 631 mmHg 45%
    12:00 +28°C° 0 mm 4 mps 631 mmHg 36%
    13:00 +30°C° 0 mm 4 mps 631 mmHg 28%
    14:00 +33°C° 0 mm 4 mps 631 mmHg 20%
    15:00 +33°C° 0 mm 4 mps 631 mmHg 18%
    16:00 +33°C° 0 mm 4 mps 630 mmHg 17%
    17:00 +33°C° 0 mm 4 mps 630 mmHg 16%
    18:00 +29°C° 0 mm 4 mps 629 mmHg 19%
    19:00 +26°C° 0 mm 3 mps 628 mmHg 23%
    20:00 +23°C° 0 mm 2 mps 628 mmHg 26%
    21:00 +21°C° 0 mm 2 mps 628 mmHg 28%
    22:00 +21°C° 0 mm 2 mps 628 mmHg 29%
    23:00 +20°C° 0 mm 2 mps 628 mmHg 31%

    Day after tomorrow, 18 December, Wednesday

    Time Temperature Precipitation Wind Pressure Humidity
    00:00 +20°C° 0 mm 2 mps 628 mmHg 39%
    01:00 +19°C° 0 mm 2 mps 627 mmHg 47%
    02:00 +19°C° 0 mm 2 mps 627 mmHg 55%
    03:00 +18°C° 0.2 mm 2 mps 627 mmHg 62%
    04:00 +18°C° 0.2 mm 1 mps 627 mmHg 69%
    05:00 +15°C° 0.2 mm 0 mps 627 mmHg 76%
    06:00 +19°C° 0.1 mm 1 mps 627 mmHg 70%
    07:00 +20°C° 0.1 mm 2 mps 628 mmHg 64%
    08:00 +22°C° 0.1 mm 3 mps 629 mmHg 58%
    09:00 +25°C° 0.4 mm 4 mps 629 mmHg 51%
    10:00 +27°C° 0.4 mm 6 mps 629 mmHg 44%
    11:00 +30°C° 0.4 mm 7 mps 630 mmHg 37%
    12:00 +29°C° 0.2 mm 7 mps 629 mmHg 38%
    13:00 +29°C° 0.2 mm 8 mps 628 mmHg 39%
    14:00 +29°C° 0.2 mm 8 mps 628 mmHg 40%
    15:00 +26°C° 1.9 mm 7 mps 627 mmHg 53%
    16:00 +22°C° 1.9 mm 5 mps 626 mmHg 66%
    17:00 +19°C° 1.9 mm 4 mps 624 mmHg 79%
    18:00 +19°C° 0.5 mm 3 mps 625 mmHg 79%
    19:00 +18°C° 0.5 mm 3 mps 625 mmHg 79%
    20:00 +18°C° 0.5 mm 2 mps 626 mmHg 80%
    21:00 +18°C° 0.1 mm 2 mps 626 mmHg 82%
    22:00 +18°C° 0.1 mm 1 mps 626 mmHg 84%
    23:00 +18°C° 0.1 mm 1 mps 627 mmHg 87%

    19 December, Thursday

    Time Temperature Precipitation Wind Pressure Humidity
    00:00 +16°C° 0 mm 1 mps 626 mmHg 89%
    01:00 +16°C° 0 mm 1 mps 626 mmHg 91%
    02:00 +15°C° 0 mm 1 mps 625 mmHg 93%
    03:00 +13°C° 0 mm 0 mps 625 mmHg 93%
    04:00 +13°C° 0 mm 0 mps 625 mmHg 93%
    05:00 +12°C° 0 mm 0 mps 625 mmHg 92%
    06:00 +15°C° 0 mm 0 mps 627 mmHg 78%
    07:00 +19°C° 0 mm 1 mps 628 mmHg 64%
    08:00 +22°C° 0 mm 1 mps 629 mmHg 49%
    09:00 +24°C° 0 mm 2 mps 629 mmHg 38%
    10:00 +26°C° 0 mm 3 mps 630 mmHg 27%
    11:00 +28°C° 0 mm 4 mps 630 mmHg 16%
    12:00 +29°C° 0 mm 5 mps 630 mmHg 15%
    13:00 +30°C° 0 mm 5 mps 630 mmHg 14%
    14:00 +32°C° 0 mm 6 mps 629 mmHg 12%
    15:00 +32°C° 0 mm 6 mps 629 mmHg 13%
    16:00 +30°C° 0 mm 6 mps 629 mmHg 13%
    17:00 +30°C° 0 mm 6 mps 629 mmHg 13%
    18:00 +27°C° 0 mm 5 mps 628 mmHg 18%
    19:00 +24°C° 0 mm 3 mps 628 mmHg 22%
    20:00 +21°C° 0 mm 1 mps 627 mmHg 26%
    21:00 +20°C° 0 mm 1 mps 627 mmHg 28%
    22:00 +18°C° 0 mm 0 mps 627 mmHg 29%
    23:00 +17°C° 0 mm 0 mps 628 mmHg 30%

    20 December, Friday

    Time Temperature Precipitation Wind Pressure Humidity
    00:00 +16°C° 0 mm 0 mps 627 mmHg 30%
    01:00 +16°C° 0 mm 0 mps 627 mmHg 30%
    02:00 +15°C° 0 mm 0 mps 627 mmHg 29%
    03:00 +15°C° 0 mm 0 mps 627 mmHg 30%
    04:00 +16°C° 0 mm 1 mps 627 mmHg 30%
    05:00 +15°C° 0 mm 1 mps 627 mmHg 31%
    06:00 +19°C° 0 mm 1 mps 629 mmHg 27%
    07:00 +23°C° 0 mm 1 mps 630 mmHg 23%
    08:00 +24°C° 0 mm 0 mps 631 mmHg 19%
    09:00 +28°C° 0 mm 1 mps 632 mmHg 17%
    10:00 +30°C° 0 mm 2 mps 632 mmHg 14%
    11:00 +33°C° 0 mm 3 mps 632 mmHg 12%
    12:00 +34°C° 0 mm 4 mps 632 mmHg 12%
    13:00 +35°C° 0 mm 5 mps 632 mmHg 12%
    14:00 +35°C° 0 mm 6 mps 632 mmHg 12%
    15:00 +35°C° 0 mm 6 mps 632 mmHg 12%
    16:00 +35°C° 0 mm 6 mps 631 mmHg 12%
    17:00 +34°C° 0 mm 6 mps 631 mmHg 12%
    18:00 +30°C° 0 mm 5 mps 630 mmHg 16%
    19:00 +27°C° 0 mm 3 mps 629 mmHg 20%
    20:00 +24°C° 0 mm 1 mps 629 mmHg 23%
    21:00 +23°C° 0 mm 1 mps 629 mmHg 25%
    22:00 +23°C° 0 mm 1 mps 629 mmHg 26%
    23:00 +22°C° 0 mm 1 mps 629 mmHg 27%

    21 December, Saturday

    Time Temperature Precipitation Wind Pressure Humidity
    00:00 +21°C° 0 mm 1 mps 629 mmHg 29%
    01:00 +20°C° 0 mm 2 mps 628 mmHg 30%
    02:00 +20°C° 0 mm 2 mps 628 mmHg 31%
    03:00 +19°C° 0 mm 2 mps 628 mmHg 38%
    04:00 +19°C° 0 mm 2 mps 628 mmHg 46%
    05:00 +18°C° 0 mm 2 mps 629 mmHg 53%
    06:00 +21°C° 0 mm 2 mps 630 mmHg 50%
    07:00 +24°C° 0 mm 3 mps 631 mmHg 47%
    08:00 +27°C° 0 mm 3 mps 632 mmHg 44%
    09:00 +29°C° 0 mm 3 mps 632 mmHg 37%
    10:00 +31°C° 0 mm 3 mps 633 mmHg 30%
    11:00 +33°C° 0 mm 3 mps 633 mmHg 23%
    12:00 +34°C° 0 mm 4 mps 633 mmHg 21%
    13:00 +35°C° 0 mm 4 mps 633 mmHg 18%
    14:00 +36°C° 0 mm 4 mps 632 mmHg 16%
    15:00 +36°C° 0 mm 4 mps 632 mmHg 15%
    16:00 +36°C° 0 mm 4 mps 632 mmHg 14%
    17:00 +36°C° 0 mm 3 mps 631 mmHg 13%
    18:00 +33°C° 0 mm 4 mps 631 mmHg 19%
    19:00 +30°C° 0 mm 4 mps 632 mmHg 25%
    20:00 +27°C° 0 mm 4 mps 632 mmHg 32%
    21:00 +25°C° 0.3 mm 4 mps 631 mmHg 46%
    22:00 +21°C° 0.3 mm 4 mps 631 mmHg 61%
    23:00 +19°C° 0.3 mm 4 mps 631 mmHg 75%
    Show more